Location: Unspecified
(0.0000°N, 0.0000°E)
Time: 15:46:57
(UTC+00:00)

deb Delta 126 - Pass Details

Date: 21 February 2026
Orbit: 1502 x 2092 km, 101.9° (Epoch: 4 March)

Event Time Altitude Azimuth Distance (km) Brightness Sun altitude
Rises 04:25:18 0° 1° (N) 4,717 ? -26.6°
Reaches altitude 10° 04:28:12 10° 355° (N) 3,783 ? -25.9°
Maximum altitude 04:36:33 46° 285° (WNW) 2,167 ? -23.8°
Drops below altitude 10° 04:45:51 10° 216° (SW) 4,185 ? -21.6°
Sets 04:49:15 0° 210° (SSW) 5,260 ? -20.7°
